When you browse on this site, cookies collect data to enhance your experience and personalize the content and advertising you see.
Visit our Privacy Policy to learn more. By continuing to use the site, you agree to this use of cookies and data.
  • In Deutschland
  • Länderverzeichnis
  • Für 7 Tage
  • Wassertemperatur
  • Satellitenkarten
  • Wetterkarte
  • Widgets
  • user-avatar
    Anmelden

    Stündliche Wetter Zaykovo

    Heute, 19 Februar, Dienstag

    Zeit Temperatur Niederschläge Wind Luftdruck Luftfeuchtigkeit
    00:00 -10°C° 0 mm 2 m/S 750 mmHg 90%
    01:00 -12°C° 0 mm 3 m/S 749 mmHg 90%
    02:00 -10°C° 0 mm 3 m/S 748 mmHg 90%
    03:00 -10°C° 0 mm 3 m/S 748 mmHg 89%
    04:00 -10°C° 0 mm 4 m/S 747 mmHg 88%
    05:00 -10°C° 0 mm 4 m/S 746 mmHg 86%
    06:00 -10°C° 0 mm 5 m/S 745 mmHg 83%
    07:00 -10°C° 0 mm 5 m/S 745 mmHg 80%
    08:00 -9°C° 0 mm 6 m/S 744 mmHg 76%
    09:00 -6°C° 0 mm 5 m/S 744 mmHg 75%
    10:00 -4°C° 0 mm 5 m/S 743 mmHg 75%
    11:00 -2°C° 0 mm 5 m/S 743 mmHg 74%
    12:00 -1°C° 0 mm 4 m/S 743 mmHg 77%
    13:00 -1°C° 0 mm 4 m/S 742 mmHg 81%
    14:00 +1°C° 0 mm 3 m/S 742 mmHg 86%
    15:00 0°C° 0 mm 3 m/S 741 mmHg 87%
    16:00 -1°C° 0 mm 3 m/S 741 mmHg 88%
    17:00 -1°C° 0 mm 3 m/S 740 mmHg 88%
    18:00 -2°C° 0 mm 3 m/S 740 mmHg 88%
    19:00 -3°C° 0 mm 4 m/S 739 mmHg 87%
    20:00 -4°C° 0 mm 4 m/S 739 mmHg 86%
    21:00 -3°C° 0 mm 4 m/S 738 mmHg 87%
    22:00 -3°C° 0 mm 4 m/S 737 mmHg 88%
    23:00 -2°C° 0 mm 5 m/S 737 mmHg 89%

    Morgen, 20 Februar, Mittwoch

    Zeit Temperatur Niederschläge Wind Luftdruck Luftfeuchtigkeit
    00:00 -2°C° 0 mm 4 m/S 736 mmHg 89%
    01:00 -2°C° 0 mm 4 m/S 735 mmHg 89%
    02:00 -1°C° 0 mm 4 m/S 734 mmHg 89%
    03:00 -1°C° 0.1 mm 4 m/S 734 mmHg 90%
    04:00 -1°C° 0.1 mm 4 m/S 733 mmHg 90%
    05:00 -1°C° 0.1 mm 4 m/S 732 mmHg 90%
    06:00 0°C° 0.2 mm 5 m/S 732 mmHg 90%
    07:00 0°C° 0.2 mm 5 m/S 732 mmHg 91%
    08:00 0°C° 0.2 mm 5 m/S 732 mmHg 91%
    09:00 0°C° 0 mm 5 m/S 732 mmHg 90%
    10:00 0°C° 0 mm 4 m/S 732 mmHg 90%
    11:00 0°C° 0 mm 4 m/S 732 mmHg 90%
    12:00 0°C° 0.1 mm 4 m/S 732 mmHg 89%
    13:00 0°C° 0.1 mm 5 m/S 731 mmHg 89%
    14:00 0°C° 0.1 mm 5 m/S 731 mmHg 88%
    15:00 0°C° 0.1 mm 4 m/S 731 mmHg 88%
    16:00 0°C° 0.1 mm 4 m/S 731 mmHg 88%
    17:00 -1°C° 0.1 mm 4 m/S 730 mmHg 88%
    18:00 -1°C° 0.2 mm 4 m/S 730 mmHg 88%
    19:00 -1°C° 0.2 mm 4 m/S 730 mmHg 89%
    20:00 -1°C° 0.2 mm 4 m/S 730 mmHg 89%
    21:00 -1°C° 0.2 mm 4 m/S 730 mmHg 89%
    22:00 -1°C° 0.2 mm 4 m/S 729 mmHg 89%
    23:00 -1°C° 0.2 mm 4 m/S 729 mmHg 89%

    übermorgen, 21 Februar, Donnerstag

    Zeit Temperatur Niederschläge Wind Luftdruck Luftfeuchtigkeit
    00:00 -2°C° 0.1 mm 4 m/S 730 mmHg 89%
    01:00 -3°C° 0.1 mm 4 m/S 730 mmHg 88%
    02:00 -4°C° 0.1 mm 4 m/S 730 mmHg 88%
    03:00 -4°C° 0.1 mm 4 m/S 730 mmHg 87%
    04:00 -4°C° 0.1 mm 4 m/S 730 mmHg 87%
    05:00 -5°C° 0.1 mm 4 m/S 730 mmHg 86%
    06:00 -6°C° 0.1 mm 5 m/S 731 mmHg 87%
    07:00 -6°C° 0.1 mm 5 m/S 731 mmHg 87%
    08:00 -6°C° 0.1 mm 5 m/S 732 mmHg 87%
    09:00 -6°C° 0.3 mm 6 m/S 733 mmHg 86%
    10:00 -6°C° 0.3 mm 6 m/S 733 mmHg 86%
    11:00 -7°C° 0.3 mm 7 m/S 734 mmHg 85%
    12:00 -7°C° 0.1 mm 7 m/S 735 mmHg 82%
    13:00 -8°C° 0.1 mm 7 m/S 736 mmHg 80%
    14:00 -9°C° 0.1 mm 7 m/S 737 mmHg 77%
    15:00 -11°C° 0.1 mm 7 m/S 738 mmHg 77%
    16:00 -10°C° 0.1 mm 6 m/S 739 mmHg 77%
    17:00 -11°C° 0.1 mm 6 m/S 740 mmHg 76%
    18:00 -12°C° 0.1 mm 6 m/S 741 mmHg 76%
    19:00 -12°C° 0.1 mm 6 m/S 742 mmHg 75%
    20:00 -14°C° 0.1 mm 6 m/S 742 mmHg 75%
    21:00 -14°C° 0 mm 6 m/S 743 mmHg 74%
    22:00 -14°C° 0 mm 6 m/S 743 mmHg 74%
    23:00 -14°C° 0 mm 6 m/S 744 mmHg 73%

    22 Februar, Freitag

    Zeit Temperatur Niederschläge Wind Luftdruck Luftfeuchtigkeit
    00:00 -14°C° 0 mm 6 m/S 744 mmHg 73%
    01:00 -15°C° 0 mm 6 m/S 745 mmHg 73%
    02:00 -15°C° 0 mm 6 m/S 745 mmHg 73%
    03:00 -15°C° 0 mm 7 m/S 746 mmHg 73%
    04:00 -15°C° 0 mm 7 m/S 746 mmHg 73%
    05:00 -15°C° 0 mm 7 m/S 746 mmHg 73%
    06:00 -15°C° 0 mm 7 m/S 747 mmHg 73%
    07:00 -15°C° 0 mm 7 m/S 747 mmHg 72%
    08:00 -15°C° 0 mm 7 m/S 748 mmHg 72%
    09:00 -15°C° 0 mm 7 m/S 748 mmHg 71%
    10:00 -16°C° 0 mm 8 m/S 748 mmHg 71%
    11:00 -15°C° 0 mm 8 m/S 748 mmHg 70%
    12:00 -15°C° 0.1 mm 8 m/S 749 mmHg 70%
    13:00 -15°C° 0.1 mm 8 m/S 749 mmHg 70%
    14:00 -15°C° 0.1 mm 8 m/S 749 mmHg 71%
    15:00 -14°C° 0.1 mm 7 m/S 750 mmHg 72%
    16:00 -14°C° 0.1 mm 7 m/S 751 mmHg 73%
    17:00 -14°C° 0.1 mm 7 m/S 751 mmHg 74%
    18:00 -14°C° 0 mm 6 m/S 752 mmHg 75%
    19:00 -15°C° 0 mm 6 m/S 752 mmHg 75%
    20:00 -15°C° 0 mm 6 m/S 753 mmHg 75%
    21:00 -15°C° 0 mm 6 m/S 753 mmHg 76%
    22:00 -15°C° 0 mm 5 m/S 754 mmHg 78%
    23:00 -15°C° 0 mm 5 m/S 754 mmHg 79%

    23 Februar, Samstag

    Zeit Temperatur Niederschläge Wind Luftdruck Luftfeuchtigkeit
    00:00 -15°C° 0 mm 5 m/S 755 mmHg 80%
    01:00 -17°C° 0 mm 5 m/S 755 mmHg 81%
    02:00 -16°C° 0 mm 4 m/S 756 mmHg 83%
    03:00 -16°C° 0 mm 4 m/S 756 mmHg 84%
    04:00 -17°C° 0 mm 4 m/S 756 mmHg 85%
    05:00 -17°C° 0 mm 4 m/S 756 mmHg 86%
    06:00 -17°C° 0 mm 4 m/S 756 mmHg 86%
    07:00 -17°C° 0 mm 4 m/S 757 mmHg 87%
    08:00 -17°C° 0 mm 3 m/S 757 mmHg 87%
    09:00 -16°C° 0 mm 3 m/S 757 mmHg 84%
    10:00 -15°C° 0 mm 3 m/S 757 mmHg 81%
    11:00 -14°C° 0 mm 3 m/S 757 mmHg 78%
    12:00 -13°C° 0 mm 3 m/S 757 mmHg 76%
    13:00 -12°C° 0 mm 3 m/S 757 mmHg 74%
    14:00 -10°C° 0 mm 2 m/S 756 mmHg 72%
    15:00 -10°C° 0 mm 2 m/S 756 mmHg 76%
    16:00 -12°C° 0 mm 2 m/S 756 mmHg 80%
    17:00 -10°C° 0 mm 1 m/S 756 mmHg 84%
    18:00 -10°C° 0 mm 1 m/S 756 mmHg 85%
    19:00 -10°C° 0 mm 1 m/S 756 mmHg 86%
    20:00 -10°C° 0 mm 1 m/S 756 mmHg 87%
    21:00 -10°C° 0 mm 1 m/S 756 mmHg 86%
    22:00 -10°C° 0 mm 1 m/S 756 mmHg 85%
    23:00 -10°C° 0 mm 0 m/S 756 mmHg 85%

    24 Februar, Sonntag

    Zeit Temperatur Niederschläge Wind Luftdruck Luftfeuchtigkeit
    00:00 -10°C° 0 mm 0 m/S 756 mmHg 85%
    01:00 -10°C° 0 mm 0 m/S 756 mmHg 85%
    02:00 -10°C° 0 mm 0 m/S 757 mmHg 84%
    03:00 -9°C° 0 mm 1 m/S 757 mmHg 86%
    04:00 -9°C° 0 mm 1 m/S 757 mmHg 87%
    05:00 -9°C° 0 mm 1 m/S 757 mmHg 89%
    06:00 -9°C° 0 mm 1 m/S 757 mmHg 89%
    07:00 -8°C° 0 mm 1 m/S 757 mmHg 90%
    08:00 -8°C° 0 mm 1 m/S 758 mmHg 91%
    09:00 -7°C° 0 mm 1 m/S 758 mmHg 89%
    10:00 -6°C° 0 mm 1 m/S 758 mmHg 88%
    11:00 -4°C° 0 mm 1 m/S 758 mmHg 86%
    12:00 -4°C° 0 mm 1 m/S 758 mmHg 85%
    13:00 -3°C° 0 mm 1 m/S 758 mmHg 84%
    14:00 -2°C° 0 mm 1 m/S 758 mmHg 83%
    15:00 -3°C° 0 mm 1 m/S 758 mmHg 86%
    16:00 -3°C° 0 mm 1 m/S 758 mmHg 89%
    17:00 -3°C° 0 mm 1 m/S 758 mmHg 92%
    18:00 -3°C° 0 mm 1 m/S 758 mmHg 93%
    19:00 -3°C° 0 mm 1 m/S 758 mmHg 94%
    20:00 -3°C° 0 mm 1 m/S 758 mmHg 94%
    21:00 -4°C° 0 mm 1 m/S 757 mmHg 95%
    22:00 -4°C° 0 mm 1 m/S 757 mmHg 95%
    23:00 -4°C° 0 mm 1 m/S 757 mmHg 95%
    Mehr zeigen